TimeCDT,TemperatureF,Dew PointF,Humidity,Sea Level PressureIn,VisibilityMPH,Wind Direction,Wind SpeedMPH,Gust SpeedMPH,PrecipitationIn,Events,Conditions,WindDirDegrees,DateUTC
12:52 AM,43.0,37.9,82,29.60,6.0,North,18.4,34.5,0.03,Rain,Light Rain,350,2011-10-20 05:52:00
1:52 AM,44.1,37.9,79,29.57,9.0,NNW,19.6,35.7,0.02,Rain,Light Rain,340,2011-10-20 06:52:00
2:52 AM,44.1,37.0,76,29.56,10.0,NNW,18.4,29.9,0.00,,Overcast,340,2011-10-20 07:52:00
3:52 AM,43.0,37.9,82,29.55,10.0,NNW,18.4,25.3,0.01,Rain,Light Rain,340,2011-10-20 08:52:00
4:52 AM,43.0,37.9,82,29.55,8.0,NNW,15.0,29.9,0.03,Rain,Light Rain,340,2011-10-20 09:52:00
5:52 AM,42.1,37.0,82,29.56,10.0,NNW,19.6,27.6,0.01,Rain,Light Rain,330,2011-10-20 10:52:00
6:52 AM,41.0,37.9,89,29.56,10.0,NNW,16.1,26.5,0.03,Rain,Light Rain,330,2011-10-20 11:52:00
7:52 AM,42.1,37.0,82,29.56,10.0,NNW,18.4,34.5,0.01,Rain,Light Rain,330,2011-10-20 12:52:00
8:52 AM,43.0,37.0,80,29.58,10.0,NNW,25.3,32.2,0.00,Rain,Light Rain,340,2011-10-20 13:52:00
9:52 AM,43.0,37.0,80,29.59,10.0,NNW,18.4,28.8,0.00,,Overcast,340,2011-10-20 14:52:00
10:52 AM,44.1,36.0,73,29.61,10.0,NNW,16.1,28.8,N/A,,Overcast,330,2011-10-20 15:52:00
11:52 AM,44.1,36.0,73,29.63,10.0,NNW,18.4,31.1,N/A,,Overcast,330,2011-10-20 16:52:00
12:52 PM,43.0,37.0,80,29.64,10.0,NW,20.7,27.6,0.00,,Light Drizzle,320,2011-10-20 17:52:00
1:52 PM,43.0,37.9,82,29.65,10.0,NW,15.0,28.8,0.01,Rain,Light Rain,310,2011-10-20 18:52:00
2:19 PM,42.8,37.4,81,29.65,10.0,NW,17.3,28.8,0.00,,Overcast,310,2011-10-20 19:19:00
2:52 PM,42.8,37.4,81,29.66,10.0,NW,18.4,29.9,N/A,Rain,Light Rain,310,2011-10-20 19:52:00
3:06 PM,42.8,37.4,81,29.67,10.0,NW,16.1,27.6,0.00,Rain,Light Rain,310,2011-10-20 20:06:00
3:52 PM,43.0,37.0,80,29.70,10.0,NW,18.4,24.2,0.00,Rain,Light Rain,310,2011-10-20 20:52:00
4:52 PM,43.0,37.0,80,29.74,9.0,NW,11.5,-,0.01,Rain,Light Rain,320,2011-10-20 21:52:00
5:52 PM,44.1,35.1,71,29.77,10.0,NW,15.0,25.3,0.00,,Mostly Cloudy,320,2011-10-20 22:52:00
6:52 PM,44.6,35.6,71,29.78,10.0,NW,11.5,-,N/A,,Mostly Cloudy,320,2011-10-20 23:52:00
7:52 PM,45.0,35.1,68,29.82,10.0,NW,9.2,-,N/A,,Overcast,320,2011-10-21 00:52:00
8:52 PM,45.0,35.1,68,29.83,10.0,NW,8.1,-,N/A,,Mostly Cloudy,310,2011-10-21 01:52:00
9:52 PM,45.0,34.0,65,29.86,10.0,NW,9.2,-,N/A,,Mostly Cloudy,320,2011-10-21 02:52:00
10:52 PM,45.0,34.0,65,29.88,10.0,NW,11.5,-,N/A,,Mostly Cloudy,310,2011-10-21 03:52:00
11:52 PM,44.1,34.0,68,29.89,10.0,WNW,9.2,-,N/A,,Mostly Cloudy,300,2011-10-21 04:52:00